Wind_Speed
68 68 68 68 68 68 68 69 69 69 69 69 69 69 70 70 71 72 73 73 74 75 76 77 78 79 80 81 82 83 84 85 86 87 88 89 90 91 92 93 94 95 96 97 98 99 100 100 101 101 101 101 101 100 99 99 98 96 95 93 92 90 88 86 85 83 81 79 77 75 73 71 70 68 67 66 66 65 65 65 65 65 65 65 65 65
68 69 69 69 69 69 69 69 69 69 70 70 70 71 71 72 73 73 74 75 76 77 78 79 80 80 81 82 84 85 86 87 88 90 91 92 93 95 96 97 98 98 99 100 100 101 101 101 100 100 99 98 97 96 95 93 92 90 88 87 85 83 81 78 76 74 72 70 68 66 64 62 61 60 59 59 58 58 58 58 58 58 58 58 58 58
69 69 69 69 69 69 69 70 70 70 71 71 72 72 73 74 74 75 76 77 78 79 80 81 82 83 84 85 86 88 89 91 92 93 94 96 97 98 99 99 100 100 100 101 100 100 99 98 97 96 95 93 92 90 89 87 85 83 81 79 77 75 73 70 68 66 63 61 59 58 56 55 54 54 53 53 52 52 52 52 52 52 52 52 52 52
69 69 69 69 69 69 70 70 71 71 72 72 73 74 75 76 76 77 78 79 79 81 82 83 84 85 87 88 90 91 93 94 95 96 97 98 99 100 100 100 100 100 99 98 98 96 95 93 92 90 89 87 85 83 81 80 78 76 74 71 69 67 64 62 60 57 55 54 53 52 51 50 50 49 49 48 48 48 48 48 49 49 49 49 49 49
69 69 69 69 70 70 70 71 71 72 73 74 75 76 77 77 78 79 80 80 81 82 84 85 86 88 90 92 93 95 96 97 98 98 99 99 100 100 100 99 98 97 96 94 93 91 89 87 85 84 82 80 78 76 74 72 70 68 66 63 61 59 57 54 53 51 50 49 48 48 48 47 47 46 46 46 46 46 46 46 47 47 47 47 47 47
69 69 70 70 70 70 71 72 73 74 75 76 77 77 78 79 80 80 81 82 83 85 86 88 90 91 93 95 96 97 98 98 99 99 99 99 98 98 97 95 94 92 90 88 86 84 82 81 79 77 75 73 71 69 67 65 62 60 58 56 54 52 50 49 48 47 47 47 47 47 46 46 45 45 45 45 45 45 45 45 46 46 46 45 45 45
69 69 70 70 71 71 72 74 75 76 77 78 78 79 80 80 81 82 83 85 86 88 89 91 93 94 96 97 98 98 98 98 98 97 97 95 94 93 92 90 88 86 84 82 80 77 75 73 71 69 67 66 63 61 60 58 56 54 52 50 49 47 47 46 46 46 46 46 46 46 45 45 44 44 44 44 44 44 45 45 45 45 44 44 44 43
69 70 70 71 72 73 74 75 76 78 79 79 80 81 81 82 83 84 86 87 89 91 92 94 95 96 97 97 97 97 96 96 95 93 92 91 89 87 86 84 82 79 77 75 73 70 68 67 65 63 61 59 57 56 54 52 51 49 48 47 46 45 45 45 45 45 46 46 45 45 44 44 44 43 43 43 43 44 44 44 44 43 43 42 42 42
70 70 71 72 73 75 76 77 78 79 80 81 82 83 83 84 86 87 88 90 92 93 94 95 95 96 96 96 95 94 93 92 90 88 86 85 83 81 79 77 75 72 70 68 66 64 63 61 59 58 56 55 53 52 50 49 48 47 46 46 45 45 45 45 45 45 45 45 45 44 43 43 43 42 42 43 43 43 43 43 42 41 41 40 40 40
71 72 73 74 75 76 77 78 80 81 82 83 84 85 86 87 88 90 91 92 93 94 95 95 94 93 93 92 91 89 87 86 85 83 80 78 76 75 73 70 68 66 64 62 61 60 59 57 56 55 54 52 51 50 49 48 47 47 46 46 46 46 46 46 46 45 45 44 44 43 42 42 41 41 41 42 42 42 42 41 41 40 39 39 39 39
72 73 75 76 77 78 79 80 81 82 83 85 86 88 89 90 91 92 93 93 94 94 94 93 91 89 87 86 85 84 81 79 78 76 74 72 70 69 67 65 63 61 60 59 58 57 57 56 55 54 53 52 51 50 49 48 48 47 47 47 47 47 47 47 46 45 44 43 43 42 41 41 40 40 40 41 41 41 41 40 39 38 38 38 38 38
74 75 76 77 78 80 81 82 83 84 86 87 89 90 92 93 93 93 93 93 93 92 90 89 87 85 82 80 79 78 76 73 71 69 67 66 65 63 62 61 60 59 58 57 57 57 56 55 55 54 53 52 52 51 50 49 49 48 48 48 48 48 48 47 46 45 44 43 42 41 40 39 39 39 40 40 41 41 40 39 38 37 37 37 37 37
76 77 78 79 80 81 83 84 85 87 88 90 91 92 93 94 94 94 93 92 91 89 86 84 82 80 77 75 73 71 69 67 65 63 61 60 60 60 59 59 58 58 57 57 57 57 57 56 55 55 54 53 53 52 52 51 50 50 50 49 49 49 48 47 46 45 43 42 41 40 39 38 38 38 39 40 40 40 39 38 37 36 36 36 36 36
77 78 80 81 82 83 85 86 88 89 91 92 93 93 94 94 93 92 91 89 87 85 82 78 76 74 72 69 67 65 64 63 61 59 58 58 58 58 58 58 58 58 57 57 57 58 57 56 56 55 55 54 54 53 53 52 51 51 51 50 50 49 49 48 46 45 43 41 40 39 38 38 37 38 38 39 39 39 38 37 36 36 35 35 35 35
79 80 81 82 84 86 87 89 90 91 93 93 94 93 93 92 91 89 86 83 82 79 76 73 70 68 66 64 62 61 60 60 58 57 56 56 57 58 58 57 57 57 57 56 57 57 57 56 55 55 55 55 54 54 53 53 52 52 51 51 50 50 49 48 46 45 43 41 40 39 38 37 37 37 38 38 39 38 38 37 36 35 35 35 35 34
81 82 83 85 86 88 89 91 92 93 93 93 93 91 90 88 86 84 80 78 76 73 70 66 64 62 61 60 59 58 58 58 58 56 55 55 56 58 57 57 57 57 56 56 56 56 56 55 55 54 54 54 54 54 53 53 53 52 52 51 51 50 49 48 46 45 43 41 40 39 38 37 37 37 37 38 38 38 37 36 36 35 35 34 34 34
83 84 85 87 89 90 91 92 93 93 92 91 90 88 85 82 80 78 75 72 69 67 64 61 59 57 57 58 59 59 58 57 57 56 55 54 55 57 57 56 55 55 55 55 55 55 55 54 54 53 53 53 53 53 53 53 52 52 52 51 51 50 49 48 47 45 44 42 40 39 38 38 37 37 37 38 38 37 37 36 35 35 34 34 33 33
85 86 88 89 91 92 92 92 92 91 90 88 86 83 80 77 74 71 68 66 63 61 59 58 57 55 55 55 57 59 58 57 56 56 54 54 54 55 55 55 54 54 53 53 53 53 53 52 52 51 51 51 51 51 51 52 52 51 51 51 51 50 49 48 47 45 44 43 41 40 39 38 38 38 38 38 37 37 36 36 35 35 34 34 33 33
87 88 90 91 92 92 92 91 89 88 85 83 80 77 74 71 68 65 62 60 59 57 57 56 56 56 55 55 57 58 58 57 56 55 54 52 52 53 53 53 53 52 51 51 51 51 50 50 49 49 49 49 49 50 50 50 50 50 50 50 50 49 49 48 47 46 45 43 42 41 40 39 39 38 38 38 38 37 36 36 35 35 34 34 33 33
89 90 91 92 91 91 90 88 86 83 80 77 74 70 67 64 62 59 58 57 56 56 56 55 55 55 55 55 56 57 57 56 55 54 52 51 51 51 51 51 50 49 49 48 48 48 47 47 46 46 46 47 47 48 48 49 49 49 49 49 49 49 48 48 47 46 45 44 43 42 41 40 40 39 39 39 39 38 37 36 35 35 35 34 34 33
90 91 92 91 89 87 85 83 80 77 74 71 67 64 61 59 57 56 55 55 55 55 55 54 54 54 54 54 55 55 56 55 54 53 51 50 49 49 49 48 47 46 45 45 45 44 44 43 43 43 43 44 45 46 47 47 48 48 48 48 48 48 48 48 47 46 45 44 43 43 42 41 40 40 40 40 40 39 37 36 36 35 35 35 34 34
90 90 90 89 86 83 79 77 74 70 67 63 60 58 56 55 54 54 54 54 53 53 53 53 53 53 53 53 53 54 54 54 53 52 50 48 47 46 46 45 45 44 43 42 41 41 40 40 40 40 41 42 43 45 46 46 47 47 47 47 48 48 48 47 47 46 45 44 43 43 42 41 41 41 41 41 41 40 38 37 36 36 36 36 35 35
89 88 87 84 81 77 73 69 66 63 60 57 55 54 53 52 52 52 53 52 52 52 52 52 52 52 52 52 52 53 53 53 52 51 49 47 46 44 44 43 43 41 40 39 39 38 37 37 37 38 39 41 42 43 44 45 45 46 46 46 47 47 47 47 46 45 45 44 43 42 42 41 41 41 41 42 41 41 39 38 37 37 36 36 36 36
87 84 81 78 74 70 66 62 59 56 54 53 52 52 51 51 51 52 52 52 52 52 51 51 51 51 51 51 51 51 52 52 52 50 49 47 45 43 43 42 41 40 39 37 37 36 35 35 35 36 38 39 41 42 43 43 44 44 45 45 46 46 46 46 45 45 44 43 42 41 41 40 40 40 41 42 42 41 40 39 38 38 37 37 37 36
82 78 75 70 66 62 58 55 53 51 51 51 51 51 51 51 51 52 52 52 52 51 51 51 50 50 50 50 50 50 51 51 51 50 48 46 44 43 42 41 40 39 37 36 35 35 34 34 34 35 36 38 39 40 41 42 42 43 43 44 45 45 45 45 45 44 43 42 41 40 40 39 39 40 40 41 42 41 41 40 39 38 38 38 37 37
76 71 67 62 58 55 52 50 50 50 50 50 50 50 51 51 51 52 52 52 52 51 51 50 50 49 49 48 48 49 50 50 50 49 48 46 44 43 42 41 40 39 37 36 35 34 33 33 33 34 35 36 37 39 39 40 41 41 42 43 43 44 44 44 44 43 42 41 40 39 38 38 38 39 40 41 41 41 41 40 40 39 38 38 38 37
68 63 59 55 52 50 49 49 49 49 50 50 50 50 51 51 51 51 51 52 51 51 51 50 49 49 48 47 47 48 48 49 50 49 48 46 45 43 42 41 40 39 38 36 35 34 33 32 32 33 34 35 36 37 38 39 40 40 41 42 42 43 43 43 43 42 41 40 38 37 37 37 37 38 39 40 40 41 41 40 40 39 39 39 38 38
60 56 52 50 48 48 48 48 49 49 50 50 51 51 51 51 52 52 52 52 52 51 51 50 49 49 48 47 47 47 48 49 50 49 48 46 45 43 43 42 41 40 39 37 35 33 32 32 32 32 33 33 34 35 37 38 39 39 40 41 42 43 43 43 42 42 40 39 37 36 35 35 36 37 37 39 39 40 40 40 40 39 39 38 38 37
52 49 47 46 46 47 47 48 49 50 50 51 52 52 52 52 52 52 53 53 52 52 51 51 50 50 49 48 47 47 48 49 50 49 48 46 45 44 43 43 42 41 40 38 36 34 32 32 32 32 32 33 33 34 36 37 38 39 40 41 42 43 43 43 42 41 40 38 37 35 34 34 35 35 36 37 38 39 39 39 39 39 38 38 38 37
47 45 45 45 46 47 47 48 49 50 51 52 52 53 53 54 53 53 53 53 53 53 52 52 51 51 50 49 48 47 48 49 50 50 48 47 45 44 43 43 42 42 41 39 37 34 32 32 32 32 32 33 33 34 35 36 38 38 39 40 42 43 43 43 43 42 40 38 36 35 34 34 34 35 36 36 37 38 38 38 38 38 38 38 37 36
44 44 44 45 46 47 48 49 50 51 52 52 53 54 54 54 54 54 54 54 54 53 53 53 52 52 51 50 49 48 48 50 51 51 49 47 46 44 43 43 42 42 41 40 39 36 33 31 31 32 32 32 33 34 35 36 37 38 39 40 41 42 43 44 43 42 40 39 37 35 33 33 33 34 35 36 36 37 37 37 37 37 37 37 36 35
42 43 44 45 46 47 48 49 50 51 52 53 54 54 55 55 55 55 55 55 55 54 54 54 53 53 52 51 50 50 50 51 51 51 50 48 47 45 43 42 42 41 41 40 39 38 35 32 31 31 31 32 33 33 35 36 37 38 39 40 41 42 43 43 43 42 41 39 37 35 33 33 32 33 34 35 35 36 36 36 36 36 36 36 35 35
41 42 43 45 46 47 48 50 51 52 53 53 54 55 55 56 56 56 56 56 56 56 55 55 54 54 53 53 52 51 51 52 52 52 51 49 47 45 44 42 41 40 40 39 38 38 36 34 32 31 31 31 32 33 34 35 36 37 38 39 40 41 42 42 43 42 41 40 38 35 33 32 32 32 33 34 34 35 35 35 35 35 35 35 34 33
41 42 44 45 46 48 49 50 51 52 53 54 55 56 56 57 57 57 57 57 57 57 57 56 56 55 55 54 53 52 52 52 52 52 51 49 47 45 43 42 40 39 39 38 37 36 35 34 33 32 31 30 31 32 33 34 35 37 38 38 39 40 40 41 42 42 41 40 38 36 33 32 31 31 31 32 33 34 34 34 34 34 34 34 33 32
41 43 44 45 47 48 50 51 52 53 54 55 56 57 57 57 58 58 58 58 58 58 58 58 57 56 56 55 54 52 51 51 51 51 50 48 46 45 43 41 39 38 37 36 35 35 34 33 32 31 31 30 30 31 32 34 35 36 37 38 38 39 39 40 40 40 40 39 38 36 33 31 30 30 30 31 32 32 33 33 33 33 33 32 31 31
42 43 45 46 48 49 51 52 53 54 55 56 57 57 58 58 58 59 59 59 59 59 59 58 58 57 56 54 53 52 50 50 49 49 48 47 45 43 41 39 38 37 36 35 34 33 32 31 30 30 30 30 30 30 31 32 34 35 36 37 37 38 38 39 39 39 39 38 37 35 33 31 29 28 29 30 31 31 31 32 31 31 31 30 30 29
42 44 45 47 48 50 51 53 54 55 56 56 57 58 58 58 59 59 59 59 59 59 58 57 57 56 55 53 52 51 49 48 47 46 46 45 43 42 40 38 36 35 34 33 32 31 30 29 28 28 29 29 29 29 30 31 32 34 35 35 36 36 37 38 38 38 38 37 36 34 32 30 28 27 27 28 29 29 30 30 30 29 29 29 28 28
43 44 46 48 49 51 52 53 54 55 56 56 57 58 58 58 59 59 58 58 58 57 56 55 54 53 52 51 50 49 48 47 46 45 44 43 42 40 38 36 34 32 32 31 30 29 28 27 27 27 27 27 28 28 29 30 31 32 33 34 34 35 36 36 37 37 37 36 34 32 30 28 26 25 26 26 27 28 28 28 28 27 27 27 26 26
43 45 47 49 50 51 53 53 54 55 56 56 57 57 57 57 57 57 56 56 55 54 53 52 51 50 48 47 47 46 46 45 44 43 42 41 40 38 36 34 32 30 29 29 28 27 27 26 26 25 25 26 26 27 28 29 30 31 31 32 32 33 34 35 35 36 35 34 32 30 28 26 24 23 23 24 25 25 25 26 25 25 25 25 25 24
44 46 48 50 51 52 53 53 54 55 55 56 56 56 56 56 55 54 54 53 52 51 50 49 48 46 45 44 44 43 43 43 42 42 41 40 38 36 34 32 30 28 27 26 26 25 25 25 24 24 25 25 25 26 26 28 29 30 30 29 29 30 31 33 34 34 33 32 30 28 25 23 21 21 21 22 22 23 23 24 24 24 23 23 23 23
45 47 49 50 51 52 53 53 54 54 55 55 55 54 54 53 52 51 50 49 48 48 47 45 44 43 42 41 40 40 41 41 40 40 39 38 36 34 31 29 27 26 25 24 23 23 24 24 24 24 25 25 25 25 25 26 27 27 27 27 26 27 28 30 31 32 31 29 27 24 22 20 18 18 18 19 20 21 21 22 22 22 22 21 21 21
46 48 49 50 51 52 53 53 53 53 53 53 52 52 51 50 49 48 46 46 45 44 43 42 41 39 38 37 37 37 37 38 38 37 36 35 33 31 29 27 25 24 23 23 22 22 23 23 24 24 25 25 24 24 23 23 23 24 24 24 24 24 25 27 28 29 28 26 23 20 18 16 15 15 16 17 18 19 20 20 20 20 20 20 20 20
46 48 49 50 51 52 52 52 52 52 51 51 50 49 48 47 46 45 44 43 42 41 40 39 38 37 35 34 33 33 33 34 34 34 33 32 30 28 26 25 24 23 23 22 22 21 22 23 24 24 24 23 22 21 19 19 19 20 20 21 21 21 21 23 25 25 24 21 19 16 14 13 12 13 14 15 16 17 18 19 19 19 19 19 20 20
47 48 49 50 51 51 51 50 50 49 49 48 47 47 46 45 44 43 42 41 40 39 38 37 36 34 33 32 30 29 29 30 30 30 30 29 28 26 25 24 24 23 23 22 22 22 22 22 22 23 22 20 19 17 15 15 15 16 17 18 19 19 19 20 21 21 20 18 16 13 12 11 10 11 12 13 15 16 17 17 18 18 19 19 20 20
47 48 49 49 49 49 49 48 47 47 46 46 45 45 44 44 43 42 41 40 38 38 37 36 34 33 32 30 29 27 26 26 26 27 27 27 26 26 25 24 24 23 23 23 22 22 22 21 21 20 18 17 16 15 14 13 13 13 14 16 17 17 18 18 18 17 17 16 15 13 11 9 9 9 10 12 13 14 15 16 17 18 19 19 20 21
46 47 48 48 48 47 46 46 45 44 44 43 43 43 42 42 41 40 39 38 37 36 35 34 33 32 31 29 28 26 25 24 24 24 25 25 25 25 25 24 24 23 23 23 22 22 21 21 19 18 16 15 14 14 14 13 12 12 13 14 15 16 16 16 16 16 15 15 14 13 11 9 8 8 9 10 12 13 14 16 17 18 19 20 21 22
46 46 46 46 46 45 44 44 43 42 42 41 41 41 40 40 39 38 37 36 35 34 33 32 32 31 30 29 27 26 24 23 22 22 23 23 24 24 24 24 23 23 23 22 22 22 21 20 18 17 15 14 13 12 12 13 12 12 12 13 14 15 16 16 15 15 14 13 12 11 10 8 8 8 8 10 11 13 14 16 17 18 19 21 22 22
45 45 45 45 44 43 42 41 41 40 39 39 39 39 38 38 37 36 35 34 33 33 32 31 30 30 29 28 27 25 24 23 22 21 21 21 21 21 22 22 22 22 22 22 22 21 21 20 19 18 16 14 12 11 10 11 11 12 12 12 13 13 14 14 14 13 12 11 10 9 9 8 8 8 9 10 11 13 15 16 18 19 20 21 22 22
44 44 43 43 42 41 40 39 39 38 37 37 36 36 36 36 35 34 33 32 32 31 31 30 29 29 28 27 26 25 24 23 22 21 20 19 19 19 19 19 20 20 20 21 21 21 21 21 21 19 17 14 12 10 8 9 10 11 11 11 10 10 11 11 11 10 10 9 9 9 8 8 9 9 10 11 12 14 16 17 19 20 21 22 22 22
43 43 42 41 40 39 38 37 36 36 35 35 34 34 34 33 33 32 32 31 31 30 30 29 29 28 27 26 25 24 23 22 21 20 19 19 18 18 18 18 18 18 18 19 19 20 20 21 21 20 18 15 13 11 9 8 8 9 9 9 9 9 8 9 9 9 9 9 9 9 10 10 10 11 12 12 14 15 17 19 20 21 22 22 22 21
42 42 41 40 38 37 36 35 35 34 34 33 32 32 32 31 31 30 30 30 30 30 30 29 29 28 27 26 25 24 23 22 21 20 19 19 18 18 17 17 16 16 16 16 17 17 18 19 20 20 19 17 15 12 11 8 7 7 8 8 8 8 8 8 9 10 10 11 11 12 12 12 13 13 13 14 15 16 18 19 21 22 22 22 22 21
Wind_Direction
300 299 299 299 298 298 298 297 297 297 296 296 296 295 295 295 294 294 294 294 294 293 293 293 293 293 292 292 292 292 292 292 292 291 291 291 291 291 291 291 291 291 291 291 290 290 290 290 290 289 289 288 288 287 287 286 286 285 285 284 284 283 282 282 281 280 280 279 278 277 276 276 275 274 274 273 272 272 271 271 270 270 270 269 269 269
300 299 299 299 299 298 298 297 297 297 297 296 296 295 295 295 295 295 294 294 294 294 294 294 294 294 293 293 293 293 293 293 293 293 293 293 292 292 292 292 292 292 292 292 291 291 291 290 290 290 289 289 288 287 287 286 286 285 285 284 283 283 282 281 280 280 279 278 277 276 275 274 274 273 273 272 272 271 271 270 270 270 270 270 270 271
300 299 299 299 298 298 298 298 297 297 297 296 296 296 296 296 295 295 295 295 295 295 295 295 295 295 295 295 294 294 294 294 294 294 294 294 294 293 293 293 293 293 293 292 292 292 291 291 290 290 289 288 288 287 287 286 286 285 284 284 283 282 281 281 280 278 277 276 275 275 274 273 273 273 272 271 271 271 270 270 270 270 270 271 271 271
299 299 299 299 298 298 298 298 297 297 297 297 297 297 296 296 296 296 296 296 296 296 296 296 296 296 296 296 296 295 295 295 295 295 295 295 294 294 294 294 294 293 293 293 292 292 291 291 290 289 289 288 288 287 287 286 285 285 284 284 283 282 281 279 278 277 276 275 274 274 273 273 272 271 271 270 270 270 270 270 270 270 271 271 271 271
299 299 299 299 298 298 298 298 298 298 298 297 297 297 297 297 297 297 297 297 297 297 297 297 297 297 297 297 297 296 296 296 296 296 295 295 295 295 295 294 294 294 293 293 292 292 291 290 290 289 289 288 288 287 287 286 285 285 284 283 282 281 279 278 277 275 275 274 273 273 273 272 271 270 270 269 269 269 269 269 270 270 270 270 270 270
299 299 299 299 299 299 299 299 298 298 298 298 298 298 298 298 298 298 298 298 298 298 298 298 298 298 298 297 297 297 297 297 296 296 296 296 295 295 295 294 294 294 293 293 292 291 291 290 290 289 289 288 288 287 287 286 285 284 283 282 281 279 277 276 275 275 274 274 274 273 272 271 270 269 269 269 269 269 269 269 269 269 269 269 268 268
299 299 299 299 299 299 299 299 299 299 299 299 299 299 299 299 299 299 299 299 299 299 299 299 299 299 298 298 298 297 297 297 297 297 296 296 296 295 295 294 294 294 293 292 292 291 291 290 290 289 289 288 288 287 286 285 284 283 282 280 279 277 276 275 275 275 274 274 274 273 272 270 269 269 269 268 268 268 268 268 268 268 267 267 267 267
300 300 300 300 300 300 300 300 300 300 300 300 300 299 299 299 300 300 300 300 300 300 300 300 300 299 299 299 298 298 298 297 297 297 296 296 295 295 295 294 294 293 293 292 291 291 290 290 289 289 288 288 287 287 286 285 283 282 280 279 277 276 275 275 275 275 275 274 274 272 271 270 269 269 268 268 268 267 267 267 266 266 266 266 266 265
300 301 301 301 301 301 301 301 301 300 300 300 300 300 300 300 300 300 301 301 301 300 300 300 300 300 299 299 298 298 298 297 297 297 296 296 295 295 294 294 293 293 293 292 291 291 290 290 289 289 288 288 287 286 285 283 282 281 279 278 276 276 275 275 275 275 275 274 273 271 270 269 268 268 268 268 267 266 266 265 265 265 265 265 264 263
301 301 301 302 301 301 301 301 301 301 301 301 301 301 301 301 301 301 301 301 301 301 301 301 300 300 299 299 298 298 297 297 297 296 296 295 295 294 294 294 293 293 292 292 291 291 290 289 289 288 288 287 286 285 284 282 281 280 278 277 276 276 276 276 276 276 275 274 272 270 269 268 267 267 267 266 266 265 264 264 264 264 263 263 262 262
302 302 302 302 302 302 302 302 302 302 302 302 302 302 302 302 302 302 302 302 302 301 301 301 300 300 299 298 298 297 297 297 296 296 296 295 295 294 294 293 293 293 292 292 291 290 289 289 288 288 287 286 285 284 283 281 280 279 278 277 276 276 276 276 276 276 275 274 272 270 268 267 267 266 266 265 264 263 263 262 262 262 262 261 261 260
302 303 303 303 303 303 302 302 302 302 302 303 303 303 303 303 303 303 303 302 302 302 301 301 300 300 299 298 297 297 296 296 296 295 295 295 295 294 294 294 293 293 292 292 291 290 289 288 288 287 286 285 284 283 282 281 280 279 278 277 277 276 276 276 276 275 275 273 271 269 267 266 265 265 264 263 262 262 261 261 260 260 260 259 259 259
303 303 303 303 303 303 303 303 303 303 303 303 304 304 304 304 303 303 303 303 302 302 301 301 300 299 298 297 296 296 295 295 295 295 295 295 294 294 294 294 293 293 292 292 291 290 289 288 287 286 285 284 283 282 281 280 279 278 278 277 277 276 276 276 276 275 274 272 270 268 266 265 264 263 263 262 261 260 260 259 259 258 258 257 257 257
304 304 304 304 304 304 304 304 304 304 304 304 304 304 304 304 304 304 303 303 302 302 301 300 299 299 298 297 296 295 295 295 295 295 295 295 295 294 294 294 293 293 292 291 290 289 289 288 287 286 285 284 283 282 281 280 279 278 277 277 276 276 276 276 275 274 273 271 269 267 265 264 263 262 262 261 260 259 259 258 257 256 256 256 256 256
305 305 305 305 305 305 305 305 305 305 305 305 305 305 305 305 304 304 303 303 302 301 300 300 299 298 298 297 296 295 295 295 295 295 295 295 295 294 294 293 293 292 292 291 290 289 288 288 287 285 284 283 282 281 280 279 278 278 277 276 276 276 276 275 275 274 273 271 269 267 265 263 262 262 261 260 260 259 258 257 256 255 255 254 254 254
305 305 305 305 305 305 306 306 306 306 306 306 305 305 305 304 304 303 303 302 301 301 300 299 299 298 298 297 296 296 295 296 296 296 296 296 295 294 294 293 293 292 292 291 290 289 288 287 286 285 284 283 282 281 280 279 278 277 277 276 276 275 275 275 274 273 272 271 269 267 265 263 262 261 261 260 259 258 257 256 255 254 254 253 253 253
306 306 306 306 306 306 306 306 306 306 306 306 306 305 305 304 304 303 302 302 301 300 300 299 299 298 298 297 297 296 296 296 296 296 297 296 295 294 294 294 293 292 292 291 290 289 288 287 286 285 284 282 281 280 279 278 277 277 276 275 275 275 275 274 274 273 272 271 269 267 266 264 263 262 261 260 259 258 257 256 255 254 253 253 253 253
307 307 307 307 307 307 307 307 307 306 306 306 306 305 305 304 303 303 302 302 301 301 300 300 300 299 298 297 297 296 296 297 297 297 297 297 296 295 294 294 293 293 292 291 290 289 288 287 286 285 283 282 281 280 279 278 277 276 276 275 275 274 274 274 273 273 272 271 270 268 267 265 264 263 262 261 260 259 257 256 255 254 253 253 253 253
307 307 307 307 308 308 307 307 307 307 306 306 305 305 304 303 303 303 302 302 302 302 301 301 301 300 299 298 297 296 297 297 297 297 297 297 296 295 294 294 294 293 293 291 290 289 288 287 286 284 283 282 281 280 278 278 277 276 275 275 274 274 274 274 273 273 272 271 270 269 268 266 265 264 263 262 260 259 258 256 255 254 254 254 254 254
308 308 308 308 308 308 308 307 307 306 306 305 305 304 304 303 303 303 303 303 303 303 302 302 302 301 300 299 298 297 297 297 297 297 297 297 296 295 294 294 294 293 293 291 290 289 288 287 286 284 283 281 280 279 278 277 276 276 275 275 274 274 273 273 273 272 272 271 270 269 268 267 266 265 264 263 261 260 258 257 255 255 254 254 254 254
308 308 308 308 308 308 308 307 307 306 305 305 305 304 304 304 304 304 304 303 303 303 303 303 302 302 301 300 299 298 298 298 297 297 297 297 296 295 294 294 294 293 292 291 290 289 288 287 285 284 282 281 280 279 278 277 277 276 275 275 274 274 273 273 273 272 272 271 270 269 268 267 266 265 264 263 262 261 259 257 256 255 255 254 254 254
309 309 309 309 308 308 308 307 306 306 305 305 305 305 305 305 305 305 304 304 304 304 304 304 303 302 302 301 300 299 298 298 298 297 297 297 296 295 294 294 294 293 292 291 290 289 288 287 285 283 282 280 279 279 278 277 277 276 276 275 274 274 273 273 272 272 271 271 270 269 268 267 266 264 263 263 262 261 259 258 257 255 255 254 254 254
309 309 309 309 308 308 307 307 306 306 306 306 306 306 306 306 306 306 305 305 305 305 305 305 304 304 303 302 301 300 300 299 299 299 298 298 297 296 295 294 294 293 293 292 290 289 288 286 285 283 282 281 280 279 279 278 278 277 277 276 275 274 273 273 272 271 271 270 270 269 268 267 265 264 263 262 261 261 259 258 257 255 255 254 254 254
310 309 309 308 308 307 307 307 306 307 307 307 307 308 308 308 307 307 306 306 306 306 306 306 306 305 305 304 303 303 302 301 300 300 300 299 299 297 296 295 294 294 293 292 291 290 288 286 284 283 282 281 281 280 280 280 279 279 278 277 276 275 274 273 272 271 271 270 270 269 268 267 265 264 262 261 261 260 259 258 256 255 254 254 254 254
309 309 308 308 307 307 307 307 307 308 308 308 309 309 309 309 309 309 308 308 308 308 308 308 308 307 307 306 305 304 303 302 302 302 302 301 300 299 297 296 295 294 294 293 292 290 289 287 285 283 282 282 282 282 282 281 281 280 279 278 277 276 275 274 272 271 271 270 269 269 268 266 265 263 262 261 260 259 259 257 256 255 254 253 253 253
309 308 308 308 307 308 308 308 309 309 309 310 310 310 310 310 310 310 310 310 310 310 309 309 309 308 308 307 306 305 304 303 302 302 302 302 301 300 298 296 295 294 294 293 292 291 289 288 286 284 283 283 282 283 283 283 283 282 281 280 279 278 276 275 273 272 271 270 270 269 268 266 265 263 262 261 260 259 258 257 256 254 253 253 252 252
308 308 308 308 308 309 310 310 311 311 311 311 312 312 311 311 311 311 310 310 310 310 309 309 309 308 308 307 306 305 304 302 302 302 302 302 301 300 298 296 295 294 293 292 291 291 290 288 286 285 284 283 283 283 284 284 284 283 283 282 281 280 278 276 275 273 272 271 270 269 268 267 265 263 262 260 259 258 257 256 255 254 253 252 252 251
308 308 309 310 310 311 312 312 312 313 313 313 313 312 312 312 311 311 310 310 309 309 309 308 308 307 307 307 306 305 303 302 301 301 302 302 301 300 298 296 294 293 292 291 290 290 289 288 286 285 284 283 283 283 284 284 284 284 284 283 282 281 280 278 277 275 274 273 271 270 269 267 265 264 262 260 259 258 257 256 255 253 252 251 251 250
309 310 311 312 313 313 314 314 314 314 314 314 313 313 312 312 311 311 310 309 309 309 308 308 307 307 306 306 306 305 303 302 301 301 302 302 301 300 298 296 294 292 291 289 289 288 288 287 286 285 284 283 283 283 283 283 283 283 283 284 283 283 282 281 279 277 276 274 273 271 270 268 266 264 262 261 259 258 256 255 254 253 252 251 250 249
311 312 313 314 315 315 315 315 315 315 314 314 313 313 312 312 311 310 310 309 309 308 308 307 307 306 306 306 305 305 303 302 301 301 302 302 301 300 298 296 294 292 290 289 287 286 285 285 285 284 283 283 283 282 282 282 282 283 283 283 283 283 283 282 281 279 278 276 275 273 271 268 267 265 263 261 259 257 256 254 253 252 251 250 248 247
313 314 315 315 316 316 316 315 315 315 314 313 313 312 311 311 310 310 309 309 308 308 308 307 307 307 306 306 305 305 303 302 301 301 301 301 300 300 298 296 294 292 290 288 287 285 283 282 281 282 282 282 282 281 281 281 281 282 282 282 283 283 283 283 282 281 280 278 277 274 272 269 267 265 263 261 259 257 256 254 253 251 250 248 247 245
314 315 315 316 316 316 316 315 315 314 314 313 312 311 311 310 310 309 309 309 308 308 308 308 307 307 307 306 306 305 304 302 301 301 300 300 299 299 298 296 294 293 291 289 287 285 283 281 279 279 279 280 280 280 280 280 281 281 281 282 282 282 283 283 283 282 281 280 278 276 273 270 267 265 263 261 259 257 255 254 252 250 249 247 245 243
314 315 316 316 316 316 316 315 315 314 313 312 312 311 311 310 310 310 310 309 309 309 309 308 308 308 307 307 306 305 304 302 301 300 300 299 298 298 297 295 294 293 291 289 287 285 284 282 280 278 277 278 278 279 279 279 280 280 281 281 281 282 282 283 283 283 282 281 279 277 274 271 268 265 263 261 259 257 255 253 251 250 248 246 244 242
315 316 317 317 317 317 316 316 315 314 313 313 312 312 311 311 311 311 311 311 311 310 310 310 309 309 308 307 306 305 304 303 301 301 300 299 298 297 296 295 294 293 291 289 287 286 284 282 281 279 278 277 277 278 278 279 279 279 280 280 281 281 282 282 282 282 282 281 280 277 275 272 268 265 262 260 258 256 254 252 250 249 247 245 242 240
317 317 318 318 318 317 317 316 315 315 314 313 313 313 313 312 312 312 312 312 312 312 311 311 310 309 309 308 307 305 304 303 302 301 300 299 298 297 296 295 294 293 292 290 288 286 284 282 281 280 278 277 277 277 278 278 279 279 279 280 280 281 281 281 281 281 281 280 279 278 275 272 269 265 262 259 257 255 253 251 249 247 245 243 241 238
318 319 319 319 318 318 317 316 316 315 315 314 314 314 314 314 314 314 314 313 313 313 312 312 311 310 309 308 307 306 304 303 302 301 300 299 299 298 297 296 295 294 293 292 290 288 285 283 282 280 279 278 277 277 277 278 278 279 279 280 280 281 281 280 280 280 279 279 278 277 276 273 270 266 262 258 256 254 252 250 248 246 244 242 239 237
320 320 320 320 319 319 318 317 317 316 316 316 315 315 315 315 315 315 315 315 314 314 313 312 312 311 310 309 308 306 305 304 303 302 301 300 299 299 298 297 296 295 295 294 292 290 288 285 283 281 280 279 278 278 277 277 278 278 279 280 281 281 281 280 279 279 278 278 277 277 276 273 270 266 261 257 254 252 250 248 246 244 242 240 238 236
321 321 321 321 320 320 319 318 318 317 317 317 317 317 317 317 317 316 316 316 315 314 314 313 313 312 310 309 308 307 306 304 303 302 301 301 300 300 300 299 298 297 296 296 295 293 291 288 286 283 281 280 280 280 279 279 278 279 279 280 280 281 280 279 279 278 277 277 277 277 276 274 270 265 259 255 252 250 248 246 244 242 240 239 236 235
322 322 322 322 321 321 320 319 319 319 318 318 318 318 318 318 318 318 318 317 316 316 315 314 313 312 311 309 308 307 305 304 304 303 302 302 302 302 301 301 300 299 299 299 298 297 295 293 290 287 285 283 281 281 282 281 281 280 280 280 280 280 279 279 278 277 277 277 277 277 276 273 269 262 257 252 249 247 246 244 242 241 239 238 236 235
324 324 323 323 322 322 321 321 320 320 320 320 320 320 320 320 320 320 320 319 318 317 317 316 315 313 312 310 308 307 305 305 304 304 303 303 303 304 304 304 304 303 303 303 302 301 299 297 294 291 289 287 286 285 285 284 284 283 282 280 279 279 278 278 277 277 277 277 278 277 276 272 266 259 253 249 246 245 243 242 241 239 238 237 236 236
325 325 324 324 324 323 323 323 322 322 323 323 323 323 323 323 323 322 322 321 321 320 319 318 317 316 314 312 310 308 306 306 305 305 305 305 306 306 307 308 308 309 308 308 307 305 303 301 298 296 294 292 291 290 289 288 287 285 283 281 279 277 276 276 277 277 278 279 279 278 275 269 262 255 249 245 243 242 241 241 240 239 238 237 237 238
326 326 326 326 325 325 325 325 325 326 326 326 326 326 326 326 325 325 325 325 324 324 323 322 321 320 318 316 313 310 308 307 307 307 307 308 309 310 312 313 314 315 314 313 311 309 307 304 302 300 298 297 297 296 294 292 290 288 286 283 280 278 276 276 277 277 279 280 280 278 273 266 258 251 246 243 242 241 240 239 239 238 238 238 239 240
328 328 328 327 327 327 328 328 328 329 329 329 329 328 328 328 329 329 329 329 329 329 328 328 327 326 324 321 318 315 312 310 309 309 310 312 314 316 318 320 321 321 320 318 315 312 309 307 305 304 304 304 304 303 301 297 294 291 289 286 283 281 279 277 278 279 281 282 281 278 272 263 255 248 245 243 241 240 239 238 237 238 238 239 241 244
330 330 330 330 330 330 331 331 332 332 332 332 331 331 331 332 332 333 334 334 335 335 335 334 334 333 331 329 325 322 318 315 314 313 314 317 320 323 325 326 326 325 323 320 318 315 313 311 310 310 311 312 313 312 309 305 300 295 292 289 286 283 281 279 278 280 282 283 283 281 274 265 256 249 245 242 240 239 237 237 236 237 239 242 245 248
332 332 332 332 332 333 333 334 334 334 334 334 334 334 334 335 336 337 338 339 340 340 340 340 340 339 339 337 335 332 328 324 321 320 321 323 326 328 329 329 328 327 325 323 321 320 318 318 318 319 321 323 323 322 318 312 304 297 292 289 287 286 284 282 281 281 282 285 286 285 280 271 259 250 244 241 239 238 237 237 238 240 243 246 249 252
334 334 334 334 335 336 336 337 337 337 337 337 337 337 338 338 340 341 342 342 343 344 344 344 344 345 345 344 343 342 339 335 332 329 328 329 330 331 331 331 330 329 327 326 325 325 325 326 328 331 333 333 331 328 322 315 306 296 290 286 285 284 285 285 285 285 286 287 288 287 284 275 263 251 244 240 239 239 239 241 243 246 249 252 255 257
336 336 336 337 337 338 339 339 339 340 340 340 340 340 341 342 343 344 345 345 346 346 347 348 348 349 349 350 350 349 348 346 342 339 336 335 334 333 332 332 331 331 330 330 329 330 331 334 337 340 341 340 338 333 324 314 305 296 289 285 283 283 284 286 288 290 291 290 289 287 283 274 263 252 245 242 243 244 246 249 251 254 256 258 260 261
337 338 338 339 339 340 341 341 342 342 342 342 343 343 344 344 345 346 347 348 349 349 350 351 352 352 353 353 354 354 353 352 350 347 344 341 338 336 335 334 334 334 333 333 333 334 336 339 342 346 347 347 346 341 331 316 306 299 294 290 287 286 286 289 292 294 294 292 289 283 278 271 263 256 250 249 250 253 256 258 259 261 262 263 263 264
339 340 340 341 341 342 343 343 344 344 345 345 346 346 346 347 348 349 349 351 352 352 353 354 355 356 356 356 357 356 356 355 354 351 349 346 343 340 338 337 337 336 336 336 336 337 339 341 345 350 354 353 352 351 341 325 313 307 304 301 298 296 296 297 298 299 297 295 290 283 277 270 265 260 257 257 259 261 263 265 265 266 266 265 266 266
341 341 342 343 343 344 344 345 346 347 347 348 348 348 349 349 350 351 353 354 355 356 357 358 359 359 360 360 359 359 359 358 356 355 352 350 348 346 344 343 342 341 340 339 338 339 339 340 344 350 358 360 359 357 353 342 328 320 317 314 313 312 310 308 306 304 301 298 293 287 282 276 271 268 265 264 264 265 266 267 268 268 268 268 269 270
342 343 344 344 345 345 346 347 347 348 349 349 350 350 351 352 354 355 356 357 358 359 359 0 1 1 2 2 2 1 1 1 360 358 357 355 353 351 350 348 347 345 343 340 339 338 337 336 337 340 347 356 2 2 360 359 351 336 325 320 320 319 317 313 310 306 302 299 295 291 286 282 279 276 272 269 267 266 267 268 270 271 272 273 274 276
Height
5606 5604 5602 5600 5598 5596 5593 5591 5589 5586 5584 5582 5581 5578 5576 5574 5571 5569 5567 5565 5562 5559 5557 5554 5551 5549 5546 5543 5540 5537 5534 5531 5529 5527 5524 5522 5519 5517 5514 5512 5510 5507 5505 5503 5501 5498 5496 5493 5491 5489 5486 5483 5481 5479 5476 5474 5472 5470 5468 5466 5464 5462 5461 5459 5457 5456 5454 5453 5451 5450 5449 5448 5447 5446 5445 5444 5443 5442 5441 5441 5441 5440 5439 5438 5438 5438
5601 5598 5596 5594 5592 5590 5587 5585 5583 5581 5578 5576 5574 5572 5570 5567 5565 5563 5561 5558 5555 5552 5550 5547 5544 5541 5538 5535 5532 5529 5526 5523 5521 5518 5515 5513 5510 5507 5505 5502 5500 5498 5495 5493 5490 5488 5485 5482 5480 5477 5475 5472 5470 5467 5465 5463 5461 5459 5457 5456 5454 5453 5451 5450 5448 5447 5446 5445 5444 5443 5442 5441 5440 5439 5438 5437 5436 5436 5435 5435 5434 5434 5433 5433 5433 5432
5596 5593 5591 5589 5587 5584 5582 5579 5577 5574 5572 5570 5567 5565 5563 5561 5559 5556 5554 5551 5548 5545 5542 5539 5536 5533 5530 5527 5524 5521 5517 5514 5511 5509 5506 5503 5500 5497 5495 5492 5490 5487 5485 5482 5480 5477 5474 5471 5469 5466 5464 5461 5459 5457 5455 5453 5451 5450 5448 5446 5445 5444 5443 5442 5441 5440 5438 5438 5437 5436 5436 5435 5434 5433 5432 5431 5431 5430 5430 5429 5429 5429 5428 5428 5428 5428
5591 5588 5586 5584 5581 5579 5576 5574 5571 5568 5566 5564 5561 5559 5556 5554 5552 5549 5547 5544 5541 5538 5535 5531 5528 5525 5522 5518 5515 5512 5509 5506 5502 5500 5496 5493 5491 5487 5485 5482 5479 5477 5474 5471 5469 5466 5463 5461 5458 5456 5454 5451 5449 5447 5446 5444 5442 5441 5440 5438 5437 5436 5435 5435 5434 5433 5432 5431 5431 5431 5430 5429 5428 5428 5427 5426 5426 5425 5425 5424 5424 5424 5424 5424 5424 5424
5585 5582 5580 5578 5576 5573 5571 5568 5565 5562 5559 5557 5555 5552 5550 5547 5545 5542 5540 5537 5534 5531 5527 5524 5521 5517 5513 5510 5506 5503 5500 5496 5493 5490 5487 5484 5480 5477 5474 5471 5469 5466 5464 5461 5458 5456 5453 5451 5448 5446 5444 5442 5440 5439 5437 5436 5434 5433 5432 5431 5430 5430 5429 5428 5428 5427 5427 5426 5426 5425 5425 5424 5424 5423 5422 5421 5421 5421 5420 5420 5420 5420 5420 5420 5419 5419
5580 5577 5575 5572 5570 5568 5565 5562 5559 5556 5553 5551 5549 5546 5544 5541 5538 5536 5532 5530 5526 5523 5520 5516 5512 5509 5505 5501 5497 5493 5490 5487 5484 5480 5477 5474 5470 5467 5464 5461 5459 5456 5454 5451 5448 5446 5443 5441 5439 5437 5436 5434 5432 5431 5430 5429 5427 5426 5426 5425 5424 5424 5423 5423 5422 5422 5422 5421 5421 5420 5420 5419 5419 5418 5418 5417 5416 5416 5416 5416 5416 5416 5415 5415 5415 5415
5574 5572 5569 5566 5564 5561 5559 5556 5552 5549 5547 5544 5542 5540 5537 5534 5531 5529 5525 5522 5519 5515 5511 5508 5504 5500 5496 5491 5487 5483 5480 5477 5474 5471 5467 5464 5461 5457 5454 5452 5450 5447 5445 5442 5440 5437 5435 5433 5431 5430 5428 5427 5426 5424 5423 5422 5421 5421 5420 5420 5419 5419 5418 5418 5418 5417 5417 5417 5416 5416 5415 5414 5414 5413 5413 5413 5412 5412 5412 5411 5411 5411 5411 5411 5411 5411
5568 5566 5564 5561 5558 5555 5552 5550 5546 5543 5540 5537 5535 5533 5531 5528 5525 5522 5519 5515 5511 5507 5503 5500 5496 5491 5486 5482 5477 5474 5470 5467 5465 5461 5458 5454 5451 5448 5446 5443 5441 5439 5436 5434 5432 5430 5428 5426 5425 5423 5422 5421 5420 5419 5418 5417 5416 5416 5415 5415 5414 5414 5414 5413 5413 5413 5412 5412 5411 5411 5410 5410 5409 5409 5409 5408 5408 5408 5407 5407 5407 5407 5407 5407 5407 5407
5563 5561 5558 5556 5553 5550 5546 5543 5540 5537 5534 5530 5528 5526 5523 5521 5518 5515 5511 5508 5503 5499 5495 5491 5487 5482 5477 5472 5468 5464 5461 5458 5455 5453 5450 5446 5442 5439 5437 5436 5434 5431 5429 5427 5425 5423 5421 5420 5418 5417 5416 5415 5414 5413 5412 5412 5411 5411 5410 5410 5410 5409 5409 5409 5409 5408 5408 5407 5407 5406 5406 5405 5405 5405 5404 5404 5404 5403 5403 5403 5403 5403 5403 5403 5403 5403
5557 5555 5552 5549 5546 5544 5541 5537 5533 5530 5527 5524 5520 5517 5516 5513 5510 5507 5503 5500 5496 5491 5486 5482 5478 5474 5469 5463 5459 5455 5453 5450 5447 5444 5441 5439 5436 5432 5430 5428 5427 5425 5423 5421 5419 5417 5415 5414 5413 5412 5411 5410 5409 5408 5408 5407 5406 5406 5406 5405 5405 5405 5404 5404 5404 5404 5403 5403 5402 5402 5401 5401 5401 5401 5400 5400 5399 5399 5399 5399 5399 5399 5399 5399 5399 5399
5551 5549 5546 5543 5540 5537 5534 5531 5527 5524 5521 5517 5514 5510 5507 5505 5502 5499 5495 5491 5487 5483 5478 5474 5469 5465 5461 5456 5451 5447 5445 5443 5441 5437 5434 5431 5429 5426 5424 5422 5421 5419 5417 5415 5413 5411 5410 5409 5408 5407 5406 5405 5404 5403 5403 5402 5402 5401 5401 5401 5400 5400 5400 5399 5399 5399 5399 5398 5398 5397 5397 5397 5397 5396 5396 5396 5395 5395 5395 5395 5396 5396 5396 5396 5396 5395
5546 5543 5540 5537 5534 5530 5527 5524 5520 5517 5514 5511 5507 5503 5499 5496 5493 5490 5486 5482 5479 5475 5471 5466 5461 5456 5453 5449 5445 5441 5438 5436 5435 5432 5429 5426 5422 5420 5418 5416 5415 5413 5412 5410 5408 5406 5405 5404 5403 5402 5401 5400 5399 5398 5398 5397 5397 5396 5396 5396 5395 5395 5395 5394 5394 5394 5394 5394 5393 5393 5393 5393 5393 5392 5392 5391 5391 5391 5391 5391 5392 5392 5392 5392 5392 5392
5540 5537 5534 5531 5527 5524 5520 5517 5513 5510 5506 5503 5499 5496 5491 5487 5484 5480 5477 5473 5470 5466 5463 5460 5455 5450 5445 5441 5438 5435 5432 5431 5429 5427 5425 5421 5418 5415 5413 5411 5410 5408 5406 5405 5402 5400 5399 5399 5398 5396 5395 5395 5394 5393 5392 5392 5392 5391 5391 5390 5390 5390 5390 5390 5389 5389 5389 5389 5389 5389 5389 5389 5389 5388 5388 5388 5387 5387 5387 5388 5388 5388 5388 5388 5388 5388
5534 5531 5527 5524 5520 5516 5513 5510 5506 5502 5498 5495 5491 5488 5484 5480 5475 5472 5469 5465 5461 5457 5455 5452 5449 5444 5439 5435 5431 5428 5426 5425 5424 5423 5421 5417 5413 5410 5408 5407 5405 5403 5401 5400 5398 5395 5393 5393 5392 5391 5390 5389 5388 5388 5387 5387 5386 5386 5386 5385 5385 5385 5385 5385 5385 5385 5385 5385 5385 5385 5385 5385 5384 5384 5384 5384 5384 5384 5384 5384 5384 5385 5385 5385 5385 5385
5527 5524 5520 5516 5513 5509 5506 5502 5498 5494 5490 5486 5483 5480 5476 5471 5467 5463 5461 5457 5454 5450 5447 5445 5442 5438 5434 5429 5425 5422 5421 5419 5419 5418 5417 5414 5409 5405 5403 5403 5401 5398 5396 5396 5393 5390 5388 5388 5387 5386 5384 5383 5383 5382 5381 5381 5381 5381 5380 5380 5380 5379 5379 5379 5380 5380 5380 5380 5380 5380 5380 5380 5380 5380 5380 5380 5380 5380 5380 5381 5381 5381 5381 5381 5381 5381
5521 5517 5513 5510 5506 5502 5498 5494 5490 5486 5482 5479 5475 5471 5468 5464 5459 5456 5452 5450 5447 5444 5441 5439 5436 5434 5429 5424 5419 5416 5416 5415 5414 5413 5413 5411 5406 5401 5398 5398 5396 5394 5392 5391 5388 5386 5384 5383 5382 5381 5379 5378 5377 5376 5376 5376 5376 5375 5375 5375 5374 5374 5374 5374 5374 5375 5375 5375 5375 5376 5376 5376 5376 5376 5376 5376 5376 5376 5376 5376 5377 5377 5377 5378 5378 5378
5514 5510 5506 5502 5499 5495 5491 5487 5482 5478 5475 5471 5467 5463 5460 5456 5452 5449 5446 5442 5440 5437 5435 5432 5431 5429 5426 5421 5415 5410 5409 5410 5409 5408 5408 5407 5402 5397 5393 5393 5392 5390 5388 5386 5383 5381 5380 5378 5377 5376 5374 5373 5372 5371 5371 5370 5370 5370 5370 5369 5369 5369 5369 5369 5369 5370 5370 5370 5371 5371 5371 5371 5371 5371 5371 5371 5371 5372 5372 5373 5373 5373 5374 5374 5374 5374
5506 5503 5499 5495 5491 5487 5484 5479 5475 5470 5466 5463 5460 5456 5453 5449 5446 5443 5440 5436 5434 5431 5429 5426 5424 5422 5421 5418 5412 5406 5404 5405 5405 5404 5403 5402 5398 5393 5389 5388 5387 5385 5384 5381 5379 5376 5375 5374 5372 5371 5369 5368 5367 5366 5365 5365 5365 5364 5364 5364 5364 5364 5364 5364 5364 5364 5365 5365 5366 5366 5366 5367 5367 5367 5367 5367 5367 5368 5368 5369 5369 5370 5370 5370 5371 5371
5499 5495 5491 5488 5484 5480 5476 5471 5467 5463 5459 5456 5453 5451 5447 5443 5440 5437 5434 5431 5428 5426 5424 5422 5419 5416 5414 5412 5407 5402 5400 5400 5400 5399 5398 5397 5394 5390 5385 5383 5382 5381 5379 5377 5374 5372 5371 5369 5368 5366 5365 5363 5362 5361 5360 5360 5360 5359 5359 5359 5359 5359 5359 5359 5359 5359 5360 5360 5361 5361 5361 5362 5362 5362 5362 5363 5363 5363 5364 5364 5365 5366 5366 5366 5367 5367
5492 5488 5484 5481 5477 5473 5468 5464 5460 5456 5453 5450 5447 5444 5441 5438 5435 5432 5429 5426 5424 5421 5419 5417 5414 5411 5408 5406 5402 5398 5395 5395 5394 5394 5393 5393 5390 5386 5382 5380 5378 5377 5375 5372 5370 5368 5367 5365 5364 5362 5361 5359 5357 5356 5356 5355 5355 5355 5354 5354 5354 5354 5354 5354 5354 5355 5355 5355 5356 5356 5357 5357 5357 5358 5358 5358 5358 5359 5360 5360 5361 5361 5362 5362 5363 5363
5485 5481 5476 5473 5470 5466 5462 5457 5453 5449 5446 5443 5441 5438 5436 5433 5431 5428 5425 5422 5420 5417 5415 5412 5410 5406 5404 5401 5398 5394 5391 5390 5390 5389 5389 5388 5386 5382 5379 5376 5375 5373 5371 5369 5366 5365 5363 5361 5360 5358 5356 5355 5353 5352 5351 5351 5350 5350 5350 5350 5349 5349 5349 5349 5350 5350 5350 5351 5351 5351 5352 5352 5353 5353 5353 5353 5354 5354 5355 5356 5356 5357 5357 5358 5358 5359
5478 5474 5469 5465 5461 5459 5455 5451 5447 5443 5440 5438 5436 5433 5431 5428 5426 5423 5420 5418 5416 5413 5411 5408 5405 5402 5399 5396 5393 5389 5386 5385 5384 5384 5384 5384 5382 5379 5375 5373 5371 5370 5368 5366 5363 5361 5360 5358 5356 5355 5353 5351 5349 5348 5347 5346 5346 5346 5345 5345 5345 5345 5345 5345 5345 5345 5346 5346 5346 5347 5347 5348 5348 5349 5349 5349 5349 5350 5351 5351 5352 5353 5353 5354 5354 5355
5471 5467 5462 5458 5455 5451 5448 5445 5442 5438 5435 5433 5431 5429 5426 5425 5422 5420 5416 5414 5411 5409 5407 5404 5401 5398 5395 5392 5388 5385 5381 5380 5379 5379 5379 5379 5377 5375 5372 5369 5367 5366 5364 5362 5360 5358 5357 5355 5353 5351 5349 5347 5346 5344 5343 5342 5342 5341 5341 5341 5341 5340 5340 5340 5340 5341 5341 5341 5342 5342 5343 5343 5344 5344 5344 5344 5345 5345 5346 5347 5348 5348 5349 5350 5350 5351
5464 5460 5456 5452 5449 5446 5443 5440 5437 5434 5431 5429 5427 5425 5422 5420 5418 5415 5412 5409 5407 5405 5402 5400 5397 5394 5391 5388 5385 5381 5377 5375 5373 5373 5373 5373 5372 5371 5368 5366 5364 5362 5361 5359 5357 5355 5354 5352 5350 5348 5346 5344 5342 5341 5339 5339 5338 5337 5337 5336 5336 5336 5336 5336 5336 5336 5336 5337 5337 5338 5338 5339 5339 5340 5340 5340 5340 5341 5341 5342 5343 5344 5345 5346 5346 5347
5457 5454 5451 5447 5444 5441 5438 5436 5433 5431 5428 5426 5424 5422 5419 5416 5412 5409 5406 5404 5402 5400 5397 5396 5393 5390 5387 5384 5381 5376 5372 5370 5368 5368 5368 5368 5367 5366 5364 5361 5360 5358 5357 5355 5353 5352 5350 5349 5347 5345 5343 5341 5339 5337 5336 5335 5334 5334 5333 5332 5332 5331 5331 5331 5331 5331 5332 5333 5333 5334 5334 5335 5335 5335 5335 5335 5336 5336 5337 5338 5339 5340 5341 5341 5342 5343
5452 5449 5446 5443 5440 5437 5435 5432 5430 5427 5425 5422 5419 5416 5414 5411 5408 5405 5402 5399 5397 5395 5393 5390 5388 5386 5383 5380 5377 5373 5369 5366 5364 5363 5363 5363 5363 5361 5360 5358 5356 5355 5353 5352 5350 5349 5347 5346 5344 5342 5340 5338 5336 5335 5333 5332 5331 5330 5329 5328 5327 5327 5326 5326 5326 5327 5328 5328 5329 5330 5330 5330 5331 5331 5331 5331 5331 5331 5332 5333 5334 5335 5336 5337 5338 5339
5447 5444 5441 5439 5436 5433 5431 5428 5425 5423 5420 5417 5415 5412 5410 5408 5405 5402 5399 5396 5394 5391 5388 5386 5384 5381 5379 5377 5374 5370 5366 5362 5359 5359 5359 5359 5358 5357 5356 5354 5352 5351 5349 5348 5347 5346 5344 5343 5341 5339 5337 5335 5333 5332 5330 5328 5327 5326 5325 5324 5323 5323 5322 5322 5322 5322 5323 5324 5325 5325 5326 5326 5326 5326 5326 5326 5327 5327 5328 5329 5330 5331 5331 5332 5334 5335
5442 5440 5437 5435 5432 5430 5427 5424 5421 5419 5416 5413 5411 5408 5406 5404 5401 5398 5395 5393 5390 5387 5385 5382 5380 5378 5376 5373 5371 5367 5363 5359 5356 5354 5355 5355 5354 5352 5351 5350 5348 5346 5345 5344 5344 5343 5341 5339 5338 5336 5334 5333 5331 5329 5327 5326 5324 5323 5322 5321 5320 5319 5318 5318 5318 5318 5319 5320 5321 5321 5321 5322 5322 5322 5322 5322 5322 5323 5323 5324 5325 5326 5327 5328 5330 5331
5438 5436 5433 5431 5429 5426 5423 5421 5418 5415 5412 5410 5407 5404 5401 5399 5397 5394 5391 5389 5386 5383 5381 5378 5376 5374 5371 5370 5367 5364 5360 5355 5351 5350 5351 5351 5349 5348 5347 5345 5344 5342 5341 5340 5340 5340 5339 5336 5335 5333 5331 5330 5328 5326 5324 5322 5321 5320 5319 5317 5316 5315 5314 5314 5314 5314 5315 5316 5316 5317 5317 5318 5318 5318 5318 5318 5318 5319 5319 5320 5321 5322 5323 5324 5326 5327
5435 5432 5430 5427 5425 5423 5420 5417 5414 5411 5409 5406 5403 5400 5397 5395 5392 5390 5387 5384 5382 5379 5376 5374 5371 5369 5367 5365 5363 5361 5356 5352 5348 5346 5346 5346 5345 5344 5343 5341 5339 5338 5336 5336 5335 5335 5335 5334 5332 5330 5328 5327 5325 5323 5321 5320 5318 5316 5316 5314 5313 5312 5311 5310 5310 5310 5311 5311 5312 5313 5313 5314 5314 5314 5314 5314 5314 5315 5315 5316 5316 5318 5319 5320 5322 5323
5432 5430 5427 5425 5422 5419 5417 5414 5411 5408 5405 5402 5399 5396 5393 5391 5388 5385 5382 5380 5377 5375 5372 5370 5367 5365 5363 5361 5359 5356 5353 5349 5345 5342 5342 5342 5341 5340 5339 5337 5335 5333 5332 5331 5330 5330 5331 5331 5329 5327 5325 5323 5322 5321 5319 5317 5315 5314 5312 5311 5310 5309 5307 5306 5306 5306 5307 5307 5308 5309 5309 5310 5310 5310 5310 5310 5310 5311 5311 5312 5313 5314 5315 5316 5318 5319
5430 5428 5425 5423 5420 5417 5414 5411 5408 5405 5402 5399 5396 5393 5390 5387 5384 5381 5378 5375 5373 5371 5368 5365 5363 5360 5358 5356 5354 5351 5348 5344 5341 5338 5338 5337 5336 5335 5335 5333 5331 5329 5328 5327 5326 5326 5326 5326 5326 5325 5323 5321 5319 5318 5316 5314 5312 5311 5310 5308 5307 5306 5305 5304 5303 5303 5303 5303 5304 5305 5305 5306 5306 5306 5306 5306 5306 5307 5307 5308 5309 5310 5311 5312 5314 5316
5429 5426 5423 5421 5418 5415 5412 5409 5406 5402 5399 5396 5393 5389 5386 5383 5380 5376 5374 5371 5368 5366 5363 5361 5358 5356 5353 5351 5349 5346 5343 5340 5336 5334 5333 5332 5331 5331 5330 5328 5326 5325 5324 5323 5322 5321 5321 5321 5321 5321 5320 5319 5317 5315 5313 5311 5310 5308 5307 5306 5304 5303 5302 5301 5300 5299 5299 5300 5300 5301 5301 5301 5302 5302 5302 5302 5303 5303 5304 5304 5305 5306 5307 5309 5310 5312
5426 5424 5421 5418 5416 5412 5409 5406 5403 5399 5396 5393 5389 5386 5382 5379 5376 5372 5369 5366 5363 5360 5358 5356 5353 5351 5348 5346 5343 5341 5338 5335 5331 5329 5327 5327 5326 5325 5325 5324 5322 5321 5320 5319 5318 5317 5316 5316 5316 5316 5316 5315 5314 5312 5310 5308 5307 5305 5304 5302 5301 5300 5299 5298 5297 5296 5296 5296 5296 5297 5297 5298 5298 5298 5299 5299 5299 5300 5300 5301 5301 5302 5304 5305 5307 5308
5424 5421 5419 5416 5413 5410 5406 5403 5399 5396 5392 5389 5386 5382 5379 5375 5371 5368 5365 5361 5358 5355 5352 5350 5347 5345 5342 5340 5338 5336 5333 5330 5327 5324 5322 5321 5321 5320 5320 5319 5318 5316 5315 5314 5314 5313 5312 5312 5312 5312 5311 5311 5311 5309 5307 5305 5303 5302 5301 5299 5298 5297 5296 5295 5294 5293 5293 5293 5293 5293 5294 5294 5295 5295 5295 5295 5296 5296 5297 5297 5298 5299 5301 5302 5304 5305
5422 5419 5416 5414 5411 5407 5403 5400 5396 5393 5389 5385 5381 5378 5375 5371 5367 5364 5361 5357 5354 5351 5348 5345 5342 5339 5336 5334 5332 5330 5327 5325 5322 5320 5318 5316 5316 5315 5315 5314 5313 5312 5311 5310 5310 5310 5309 5309 5308 5308 5307 5307 5306 5306 5304 5302 5301 5299 5297 5296 5295 5294 5293 5292 5291 5290 5290 5290 5290 5290 5290 5291 5291 5291 5292 5292 5292 5293 5294 5294 5295 5296 5297 5299 5301 5302
5420 5417 5414 5411 5408 5404 5401 5397 5393 5389 5386 5381 5378 5374 5371 5367 5363 5360 5356 5353 5350 5346 5343 5340 5337 5334 5331 5328 5326 5324 5321 5320 5318 5316 5314 5312 5311 5311 5310 5310 5309 5309 5307 5306 5306 5306 5306 5305 5305 5304 5304 5303 5302 5301 5301 5300 5298 5296 5295 5293 5292 5291 5290 5288 5287 5287 5287 5287 5287 5287 5287 5287 5288 5288 5288 5289 5289 5290 5291 5291 5292 5294 5295 5296 5298 5300
5417 5414 5411 5408 5405 5401 5397 5394 5390 5386 5382 5378 5374 5371 5367 5363 5360 5356 5352 5349 5345 5342 5339 5336 5333 5330 5327 5324 5321 5318 5316 5315 5313 5311 5310 5308 5307 5306 5306 5306 5305 5305 5304 5303 5302 5302 5302 5301 5301 5301 5300 5300 5299 5298 5297 5296 5295 5293 5292 5291 5290 5288 5286 5285 5284 5284 5284 5284 5284 5284 5284 5285 5285 5285 5286 5286 5286 5287 5288 5289 5290 5291 5292 5294 5296 5297
5414 5411 5408 5405 5401 5398 5394 5391 5386 5382 5379 5375 5371 5367 5363 5360 5356 5352 5348 5345 5341 5338 5335 5332 5329 5326 5323 5320 5317 5314 5312 5310 5309 5307 5306 5304 5303 5303 5302 5302 5301 5301 5301 5300 5300 5299 5299 5298 5298 5297 5296 5296 5296 5295 5294 5293 5291 5290 5289 5288 5287 5286 5284 5282 5281 5281 5281 5281 5281 5281 5282 5282 5282 5282 5283 5283 5284 5285 5286 5287 5288 5289 5290 5292 5293 5295
5412 5408 5405 5402 5398 5395 5391 5387 5383 5379 5375 5371 5367 5363 5360 5356 5352 5349 5345 5341 5338 5334 5331 5328 5326 5323 5320 5317 5314 5311 5309 5307 5305 5304 5302 5301 5300 5299 5299 5298 5298 5298 5298 5297 5297 5296 5296 5295 5295 5294 5293 5293 5292 5292 5291 5290 5288 5286 5286 5285 5284 5283 5281 5280 5278 5278 5278 5278 5279 5279 5279 5279 5280 5280 5281 5281 5282 5283 5284 5285 5286 5287 5288 5290 5291 5293
5409 5406 5402 5399 5395 5391 5387 5383 5380 5376 5372 5368 5364 5360 5356 5353 5350 5346 5342 5339 5335 5331 5328 5326 5323 5320 5317 5315 5311 5309 5306 5304 5302 5301 5299 5298 5297 5296 5296 5296 5296 5295 5295 5295 5295 5294 5294 5292 5292 5291 5291 5290 5289 5289 5288 5286 5285 5283 5282 5282 5281 5281 5279 5278 5276 5275 5275 5276 5276 5276 5277 5277 5278 5278 5279 5280 5280 5281 5282 5283 5284 5285 5286 5288 5289 5291
5406 5403 5400 5396 5392 5388 5384 5380 5376 5372 5368 5365 5361 5357 5354 5350 5347 5344 5341 5337 5333 5330 5326 5323 5321 5318 5316 5313 5310 5307 5304 5302 5300 5298 5297 5296 5295 5294 5294 5294 5293 5293 5293 5293 5293 5292 5291 5291 5289 5288 5288 5287 5286 5286 5285 5283 5282 5281 5280 5279 5278 5278 5277 5276 5275 5273 5273 5274 5274 5275 5275 5276 5276 5277 5277 5278 5279 5280 5281 5281 5282 5284 5285 5286 5287 5288
5404 5401 5397 5393 5389 5385 5381 5377 5373 5369 5366 5362 5358 5355 5351 5348 5344 5341 5338 5335 5332 5328 5325 5322 5319 5316 5314 5311 5309 5306 5303 5301 5298 5296 5295 5294 5293 5293 5292 5292 5292 5292 5291 5291 5291 5290 5290 5289 5287 5286 5285 5284 5284 5283 5282 5281 5280 5279 5277 5276 5276 5276 5275 5274 5273 5272 5272 5272 5273 5273 5273 5274 5275 5276 5276 5277 5277 5278 5279 5280 5281 5282 5283 5284 5285 5286
5402 5398 5394 5390 5386 5382 5379 5375 5371 5367 5364 5360 5356 5352 5349 5345 5342 5339 5336 5333 5330 5326 5323 5320 5317 5315 5312 5310 5307 5305 5303 5301 5298 5296 5294 5293 5292 5292 5292 5291 5291 5291 5290 5290 5289 5288 5287 5286 5285 5284 5283 5282 5281 5280 5280 5279 5278 5277 5276 5275 5274 5274 5273 5273 5272 5272 5271 5271 5271 5272 5272 5273 5273 5274 5275 5276 5276 5277 5277 5278 5279 5280 5281 5282 5283 5284
5399 5396 5392 5388 5384 5380 5377 5373 5369 5366 5362 5358 5355 5351 5347 5344 5341 5337 5334 5331 5328 5325 5322 5319 5316 5314 5311 5309 5307 5305 5303 5301 5298 5296 5294 5293 5292 5292 5291 5291 5290 5289 5289 5288 5287 5286 5285 5284 5283 5282 5281 5281 5280 5279 5278 5277 5276 5276 5275 5274 5273 5272 5272 5272 5271 5271 5271 5271 5271 5271 5271 5271 5272 5273 5274 5274 5275 5276 5276 5277 5278 5279 5279 5280 5281 5281
5397 5393 5390 5386 5382 5379 5375 5371 5368 5364 5361 5357 5353 5350 5346 5342 5339 5336 5333 5330 5327 5324 5321 5319 5316 5313 5311 5308 5306 5305 5303 5301 5299 5297 5295 5294 5292 5291 5291 5290 5289 5288 5287 5286 5285 5284 5283 5282 5281 5281 5280 5279 5279 5278 5276 5276 5275 5274 5274 5273 5272 5271 5271 5271 5270 5270 5270 5270 5270 5270 5270 5271 5271 5272 5272 5273 5274 5274 5275 5276 5276 5276 5277 5277 5278 5278
5395 5392 5388 5384 5381 5377 5374 5370 5367 5363 5360 5356 5352 5349 5345 5342 5339 5336 5333 5330 5327 5324 5321 5319 5316 5313 5311 5308 5306 5305 5303 5301 5300 5298 5296 5295 5293 5292 5290 5289 5288 5287 5286 5285 5284 5283 5282 5281 5281 5280 5279 5279 5278 5277 5276 5275 5274 5273 5273 5272 5271 5271 5270 5270 5270 5269 5269 5270 5269 5269 5269 5270 5270 5271 5271 5272 5272 5273 5273 5274 5274 5274 5275 5275 5275 5275
5393 5390 5386 5383 5380 5376 5373 5369 5366 5363 5359 5356 5352 5348 5345 5341 5339 5336 5333 5330 5327 5324 5321 5319 5316 5313 5311 5309 5307 5305 5303 5301 5300 5299 5297 5296 5294 5292 5291 5289 5288 5286 5286 5284 5283 5282 5281 5280 5280 5279 5279 5278 5277 5276 5275 5274 5273 5272 5272 5271 5271 5271 5270 5269 5269 5269 5269 5269 5269 5269 5269 5269 5269 5270 5270 5271 5271 5271 5271 5272 5272 5272 5272 5272 5272 5272
5392 5388 5385 5382 5378 5375 5372 5368 5365 5362 5359 5355 5352 5349 5345 5342 5339 5336 5333 5330 5327 5324 5321 5319 5316 5314 5311 5309 5307 5305 5304 5302 5300 5299 5297 5296 5295 5293 5291 5290 5289 5287 5286 5284 5283 5282 5281 5280 5279 5278 5277 5277 5276 5276 5275 5274 5273 5272 5272 5271 5271 5270 5270 5269 5269 5269 5268 5268 5268 5268 5268 5268 5269 5269 5269 5270 5270 5270 5270 5270 5269 5269 5269 5269 5269 5269
5390 5387 5384 5381 5377 5374 5371 5368 5365 5361 5358 5355 5352 5349 5346 5342 5339 5336 5333 5330 5327 5324 5321 5319 5316 5314 5312 5310 5307 5306 5304 5302 5301 5299 5297 5296 5295 5293 5292 5291 5289 5288 5287 5285 5284 5282 5281 5280 5279 5278 5277 5276 5276 5275 5275 5274 5273 5272 5272 5271 5271 5270 5270 5269 5269 5268 5268 5268 5268 5267 5267 5267 5268 5268 5268 5268 5268 5268 5268 5267 5267 5266 5266 5266 5266 5266
5389 5386 5382 5379 5376 5373 5370 5367 5364 5361 5358 5355 5352 5349 5346 5343 5340 5336 5333 5331 5327 5325 5322 5319 5317 5314 5312 5310 5308 5306 5304 5303 5301 5299 5298 5296 5295 5294 5292 5291 5290 5289 5287 5286 5285 5284 5282 5281 5280 5279 5277 5276 5276 5275 5275 5274 5273 5272 5272 5271 5271 5270 5270 5269 5269 5268 5268 5267 5267 5267 5267 5266 5266 5266 5266 5266 5266 5266 5266 5265 5265 5264 5264 5264 5264 5264